Simultaneous Nadir Overpasses (SNOs) Predictions

Prediction of SNOs between NOAA-19 and METOP-C Satellite Orbit:

Table of predicted SNOs for the next 14.0 days since TLE Epoch: 4/19/2025
Index Date (NOAA-19) Time (NOAA-19) Lat,Lon (NOAA-19) SZA (NOAA-19 ) Date (METOP-C) Time (METOP-C) Lat,Lon (METOP-C) SZA (METOP-C ) Distance(km) Time Diff (sec)
1 04/23/2025 20:26:05 79.93, -42.87 76.34 04/23/2025 20:27:19 79.94, -42.99 76.37 2.58 74
2 04/23/2025 21:16:59 -79.93, 124.35 103.69 04/23/2025 21:17:59 -79.92, 124.49 103.62 2.93 60
3 04/23/2025 22:07:59 79.86, -67.58 76.45 04/23/2025 22:08:38 79.86, -67.61 76.47 0.68 39
4 04/23/2025 22:58:51 -79.81, 100.23 103.48 04/23/2025 22:59:17 -79.81, 100.15 103.47 1.72 26
5 04/23/2025 23:49:52 79.76, -92.00 76.61 04/23/2025 23:49:56 79.75, -91.95 76.62 1.23 4
6 04/24/2025 00:40:44 -79.71, 75.79 103.32 04/24/2025 00:40:35 -79.71, 75.80 103.32 0.23 9
7 04/24/2025 01:31:45 79.65,-116.45 76.77 04/24/2025 01:31:14 79.64,-116.31 76.77 3.13 31
8 04/24/2025 02:22:38 -79.63, 51.05 103.21 04/24/2025 02:21:54 -79.63, 51.14 103.22 2.10 44



Historial Predications of SNOs between NOAA-19 and METOP-C
